Find Hawk A

NORAD ID: 43765 Int'l Des: 2018-099 Owner: HE360 Country: US Constellation: hawkeye-360 operational
LEOCIRCULARRETROGRADESSO

Live-Position

3D-Globus wird geladen...

Über Hawk A

Beschreibung wird geladen...

Nächste Überflüge

Passes for default location (London). Set your location on the main map for personalized predictions.

Höhenverlauf

Loading altitude history...

Zweizeiliger Elementsatz

1 43765U 18099H 26129.09415395 .00006833 00000-0 27852-3 0 9995
2 43765 97.3942 181.8487 0036579 64.8319 295.6705 15.24154233407149
Epoch: 9. Mai 2026 • Age: 18 hours

Aktueller Status

Höhe 498.2 km
Geschwindigkeit 7.62 km/s
Subsatellitenpunkt 22.89°N, 166.06°W
Startdatum 3. Dez. 2018
Alter 7.4 years
Typ other

Technische Details

Klassifizierung Payload
Masse 12.75 kg
Trockenmasse 12.00 kg
Gesamtmasse 12.75 kg
Länge 0.44 m
Durchmesser 0.20 m
Spannweite 0.44 m
Form Box
Hersteller UTIAS
Bus-Typ Nemo-V1
Phasenstatus In Orbit
Besitzer/Staat HE360/US

Most Searched